Dewpoint
0 -0 -1 -1 -2 -3 -4 -6 -7 -9 -11 -14 -16 -18 -19 -19 -18 -9 -1 3 4 1 0 4 6 7 8 8 9 10 12 12 11 10 11 10 11 11 11 11 11 12 12 11 10
0 0 -0 -1 -1 -2 -4 -5 -7 -9 -11 -13 -16 -18 -18 -21 -16 -5 -0 2 4 3 2 3 3 7 8 7 8 10 11 11 9 9 9 10 11 11 11 11 12 13 12 12 12
1 0 -0 -1 -1 -2 -3 -5 -6 -8 -11 -14 -16 -18 -18 -22 -16 -7 -1 2 4 2 3 2 4 6 7 7 8 9 11 9 9 9 10 11 11 10 10 11 11 13 13 13 12
1 -0 -1 -1 -1 -2 -3 -5 -6 -8 -10 -14 -16 -17 -19 -21 -9 -5 -2 2 4 2 3 3 4 6 7 8 8 10 10 9 10 9 10 10 10 10 10 10 10 11 12 13 13
1 -0 -1 -1 -2 -2 -3 -4 -6 -8 -11 -14 -16 -17 -19 -21 -12 -2 -2 2 3 2 3 4 5 6 7 7 8 9 10 9 9 9 9 9 11 10 10 11 11 12 12 13 12
1 0 -0 -1 -2 -3 -3 -5 -6 -8 -13 -14 -16 -16 -18 -17 -7 -2 -2 2 2 2 2 2 4 5 6 7 7 10 9 10 10 11 9 10 10 10 11 11 11 12 12 13 12
0 0 -0 -1 -2 -3 -4 -6 -7 -11 -12 -14 -16 -16 -17 -14 -3 -2 -2 0 -0 3 3 1 1 6 6 8 8 9 9 8 10 12 9 9 10 11 10 10 12 12 12 12 12
1 -0 -0 -1 -2 -3 -5 -7 -9 -10 -10 -15 -15 -16 -21 -18 -2 -2 -4 -3 -3 2 2 0 4 3 6 8 8 8 9 10 8 10 10 9 12 10 10 10 12 12 12 12 12
0 0 -0 -1 -2 -4 -5 -5 -4 -6 -13 -14 -14 -14 -18 -9 -5 -4 -4 -6 -4 1 0 -0 1 7 7 8 8 8 9 10 9 10 10 10 12 10 10 10 10 10 11 12 12
0 0 -0 -1 -2 -4 1 1 -2 -3 -7 -11 -11 -1 -12 -5 -5 -4 -4 -4 -1 -0 -2 -2 5 6 6 6 9 9 11 12 10 10 10 11 12 10 9 9 9 9 9 10 11
-1 -0 -0 -1 -3 -5 2 3 1 1 -0 -4 -13 -6 -6 -5 -4 -4 -5 -5 -4 -4 -1 1 4 6 5 6 7 7 9 8 9 10 11 10 11 11 11 10 9 8 9 9 9
-2 -1 -1 -1 -3 1 2 2 2 2 3 -2 -3 -3 -8 -7 -6 -4 -5 -6 -5 -4 -3 -2 1 1 4 7 8 9 9 9 9 9 9 13 12 11 12 11 10 8 8 8 8
-1 -2 -1 -1 -2 -1 2 1 2 2 2 -2 -2 -5 -11 -9 -7 -5 -5 -7 -6 -6 -5 -0 0 3 5 7 8 9 9 9 9 9 10 10 9 12 11 11 10 10 8 7 7
0 -2 -2 -1 -3 -2 2 0 1 0 -2 -4 -2 -8 -10 -8 -9 -7 -7 -7 -7 -5 -5 -5 -5 1 6 7 7 8 7 8 9 9 10 9 11 8 11 11 11 11 9 9 9
0 -1 -4 -2 -2 -3 0 -1 0 -1 -4 -10 -6 -8 -9 -10 -9 -7 -8 -7 -6 -6 -5 -3 1 2 4 3 6 6 6 7 8 8 8 8 11 9 10 10 9 9 10 9 8
-1 0 -4 -3 -3 -1 0 -1 -1 -2 -2 -5 -6 -6 -8 -12 -11 -9 -8 -8 -7 -7 -7 -6 -7 -2 -3 3 5 5 4 4 7 6 9 6 8 7 8 8 7 7 7 8 7
-1 1 -2 -5 -3 -2 -1 0 -1 0 -7 -5 -4 -10 -9 -11 -12 -8 -8 -7 -6 -4 -5 -6 -6 -6 2 5 4 3 4 7 7 8 7 7 8 7 4 5 6 7 6 6 7
-1 -0 -3 -7 -3 -2 -0 -0 -2 -8 -4 -5 -11 -11 -9 -11 -11 -9 -7 -6 -8 -7 -4 -3 -1 3 3 5 7 5 5 7 6 7 5 7 8 5 4 5 6 6 6 6 7
-0 -1 -9 -5 -3 -3 1 1 -2 -2 -2 -5 -9 -9 -11 -12 -11 -8 -7 -6 -7 -6 -4 -2 -1 -3 3 2 4 5 6 3 8 8 7 6 6 3 5 6 7 6 7 8 7
0 -5 1 4 -3 -2 0 0 0 -1 -4 -5 -7 -10 -9 -11 -11 -7 -6 -7 -7 -7 -8 -5 -2 -5 -6 -1 -3 3 1 4 5 6 6 7 7 7 4 4 6 7 7 9 8
-1 -1 4 1 -0 2 1 0 0 -1 -3 -5 -5 -5 -10 -11 -11 -7 -7 -7 -8 -7 -8 -5 -5 -5 -7 -1 1 1 1 1 3 4 5 4 4 5 5 3 4 5 4 6 9
-4 2 4 5 3 3 2 1 -1 -1 -2 -4 -5 -5 -6 -10 -11 -11 -7 -7 -8 -7 -6 -7 -6 -4 -6 -7 -4 -4 -0 0 0 -0 5 3 4 -0 4 4 3 3 3 6 9
2 2 5 5 5 4 3 2 1 1 -1 -3 -5 -6 -7 -7 -7 -11 -11 -12 -8 -8 -6 -7 -6 -4 -5 -6 -7 -7 -6 -4 -4 2 6 5 0 -1 -0 3 3 4 3 5 7
3 4 6 4 4 4 6 5 4 4 1 -1 -4 -6 -6 -7 -8 -6 -5 -9 -9 -8 -8 -7 -6 -5 -4 -5 -5 -5 -5 -5 -7 -4 -2 1 -3 -2 0 2 2 2 4 5 8
5 6 7 8 7 8 7 7 8 8 6 0 -4 -5 -7 -7 -6 -4 -5 -7 -5 1 -7 -8 -5 -6 -6 -6 -5 -5 -5 -7 -7 -7 -6 -7 -2 4 9 6 5 7 5 5 7
6 6 6 6 7 8 7 9 10 10 8 5 1 -2 -3 -2 -6 -6 -4 -5 -8 -1 -9 -9 -5 -6 -5 -6 -3 -1 6 5 3 -6 -3 1 11 10 11 10 9 10 8 11 10
6 6 6 6 8 9 9 10 10 9 9 8 7 4 2 -0 -3 -4 -7 -4 -6 -7 -7 -8 -6 -5 -4 -4 -3 2 6 11 11 10 10 14 12 11 15 16 16 10 10 10 10
Wind_Speed
16 16 16 16 16 15 15 14 14 13 12 11 10 9 7 7 8 9 9 3 5 1 5 6 7 3 5 3 2 2 5 1 1 4 5 14 5 12 4 15 5 0 16 23 22
16 17 16 17 17 16 16 15 15 14 12 11 9 8 7 8 9 13 7 6 5 2 3 2 2 9 3 2 3 4 4 2 2 2 6 11 14 8 6 10 6 17 21 24 21
15 17 17 17 17 17 16 15 16 14 12 10 9 8 7 6 6 5 8 9 6 2 1 3 5 6 4 5 6 4 1 1 4 9 20 11 12 8 19 1 14 26 27 26 22
16 17 18 18 18 18 17 16 16 14 13 9 8 6 5 2 6 6 8 10 9 5 1 2 5 4 5 4 5 4 9 5 4 14 16 11 17 11 7 7 22 25 27 27 24
17 17 18 19 19 18 17 16 16 14 12 8 7 5 4 5 3 4 12 12 10 7 4 2 4 6 4 3 5 5 3 6 7 13 12 19 15 10 6 19 24 24 26 27 24
19 18 18 19 19 19 18 16 16 14 11 7 6 5 4 2 4 5 16 15 9 7 5 2 5 9 9 4 4 4 9 3 5 10 4 10 6 10 15 24 24 27 29 27 25
19 20 19 20 20 19 18 16 15 12 9 5 6 6 7 8 7 10 15 13 9 7 2 1 3 2 6 4 5 4 3 3 5 4 5 7 3 1 27 26 29 29 29 28 27
19 21 20 20 20 19 18 16 12 8 5 4 5 5 6 9 10 11 13 13 13 9 2 2 8 7 3 13 5 2 4 3 3 0 5 4 3 2 26 27 28 31 30 30 31
19 21 20 20 20 19 17 12 8 3 3 3 4 3 3 10 8 9 10 12 15 10 6 2 1 6 5 4 3 4 0 1 6 4 2 3 2 7 25 23 20 25 29 32 33
20 20 20 20 19 16 13 4 1 1 2 3 4 2 3 4 5 8 11 14 10 10 5 1 4 4 3 4 2 4 1 3 3 3 4 5 2 11 22 22 23 23 24 28 32
20 20 20 19 19 9 9 1 3 2 7 6 3 2 4 2 7 9 12 13 11 8 3 2 4 3 5 5 3 3 4 3 3 4 3 4 5 10 14 16 19 23 26 29 33
20 20 19 18 16 4 8 5 9 8 8 6 11 14 12 8 3 11 10 6 5 5 3 5 3 4 6 6 6 4 4 4 5 1 3 1 5 8 10 11 25 28 30 31 29
20 19 18 17 6 4 5 9 14 5 2 5 8 8 6 8 5 11 12 7 6 5 4 6 4 5 5 4 4 3 4 3 4 3 3 6 5 3 5 9 16 23 29 30 30
19 18 17 15 3 7 4 10 11 0 4 5 4 5 9 6 3 13 17 9 2 7 8 2 3 3 1 3 7 3 6 1 2 3 2 4 4 4 1 7 8 18 26 29 26
18 17 15 14 12 6 3 7 4 2 3 3 4 6 12 8 6 9 17 7 7 5 6 6 4 4 3 6 5 6 4 3 3 4 3 5 4 7 2 5 7 13 22 28 29
16 15 15 13 11 2 4 3 1 5 4 2 6 6 6 1 2 8 6 6 6 4 4 5 2 4 7 1 4 7 5 7 5 4 3 2 3 5 2 5 4 7 23 31 31
16 14 16 12 6 7 3 1 4 3 4 3 4 4 4 5 2 4 5 5 5 5 1 5 6 3 4 4 4 5 6 3 5 4 5 3 2 9 6 7 5 7 12 18 24
16 15 14 12 10 6 2 4 4 2 5 4 3 4 8 4 2 2 6 5 1 6 4 5 6 6 5 6 6 3 5 5 2 2 4 3 3 5 5 3 8 11 14 13 16
16 14 9 5 8 8 5 3 6 5 4 5 1 6 1 1 5 3 6 7 8 8 6 5 5 4 4 4 8 5 4 4 7 2 3 4 7 8 6 3 6 7 10 12 14
15 13 1 4 9 13 4 4 3 4 5 3 2 3 6 6 4 6 8 5 6 11 4 6 1 2 1 4 4 7 6 3 3 3 1 5 5 5 5 3 4 6 10 4 7
11 5 7 12 15 6 4 6 4 6 3 3 2 2 3 6 7 6 9 2 9 5 6 5 3 6 2 4 8 2 2 7 6 3 5 1 7 7 8 8 8 10 11 9 8
5 2 10 13 4 2 4 5 1 3 3 3 1 2 3 5 5 5 9 8 14 15 10 7 5 4 9 2 3 4 6 6 5 3 2 3 6 5 9 8 12 15 13 10 9
8 2 9 5 3 1 3 3 2 3 3 5 3 3 2 1 4 6 7 5 13 8 10 8 2 2 8 6 2 2 4 5 6 4 5 5 6 3 7 9 12 11 14 11 11
4 2 1 3 2 4 1 2 3 5 4 4 4 1 2 1 2 6 3 2 17 19 14 13 4 7 7 7 4 1 2 4 5 4 6 6 6 8 10 10 14 12 11 12 12
5 2 2 1 3 2 1 1 2 5 5 4 3 2 3 3 2 1 3 1 3 10 6 7 6 4 4 3 4 3 2 8 6 5 5 2 5 7 9 8 12 14 7 9 13
4 4 4 2 5 1 3 0 1 2 2 5 2 4 4 1 2 5 1 3 3 5 4 2 4 3 2 1 4 3 5 7 4 3 2 7 4 5 10 7 9 12 6 2 5
6 4 3 4 4 2 0 1 1 1 5 13 8 7 6 7 12 21 12 7 3 7 4 4 7 4 4 2 3 4 2 4 4 1 5 4 5 4 7 12 20 13 9 9 9
Wind_Direction
347 346 344 340 338 334 328 327 325 323 323 324 318 309 297 274 251 240 243 208 196 321 27 80 93 132 129 98 75 126 64 32 347 153 144 142 123 157 126 138 76 268 151 155 159
347 344 343 341 338 333 329 326 321 320 322 321 314 309 302 273 248 237 217 210 213 256 13 45 72 176 157 91 64 70 89 184 237 198 136 152 134 145 119 130 73 112 146 156 160
348 342 341 339 337 333 328 325 317 319 320 318 308 304 305 284 258 245 218 215 215 194 34 34 117 112 65 44 27 50 50 184 9 114 129 129 127 133 135 168 167 148 154 164 168
346 341 339 337 336 332 327 322 315 316 316 313 300 295 297 269 168 151 188 195 198 146 78 26 131 81 52 40 46 102 28 58 345 122 127 143 138 138 144 184 172 160 162 168 175
337 338 335 335 333 329 324 316 312 311 310 303 289 282 276 229 221 178 174 179 191 151 132 71 100 98 107 117 59 72 12 30 71 130 134 145 153 160 159 158 167 167 171 179 183
331 334 334 332 331 326 321 313 307 308 301 289 273 262 238 232 151 137 160 173 179 155 151 25 35 111 108 60 70 90 105 29 34 38 103 113 133 131 154 162 168 174 181 188 192
330 329 332 330 331 324 318 311 302 301 290 273 255 250 242 178 156 133 146 166 157 159 152 46 37 86 115 100 96 79 68 2 44 25 129 92 16 220 160 169 170 181 189 194 200
330 326 328 329 330 323 320 304 298 291 270 250 242 238 241 191 170 151 155 173 166 168 152 43 78 114 76 117 48 39 48 34 237 246 147 90 236 157 168 167 176 186 195 204 208
328 324 327 329 328 325 325 307 300 274 242 224 230 232 246 182 187 164 154 170 160 161 142 75 26 90 106 85 26 10 345 276 321 144 83 136 213 178 183 182 189 192 199 207 215
324 324 326 329 328 334 342 342 109 249 220 219 234 269 213 165 171 173 159 147 155 159 160 75 77 80 50 78 213 217 236 259 237 178 169 134 241 166 183 192 206 209 209 212 220
321 323 326 330 331 345 1 102 302 249 252 222 252 288 296 158 191 175 167 167 136 139 133 59 77 180 213 171 207 189 185 256 220 198 138 128 143 190 178 199 213 222 225 227 226
319 322 326 330 334 33 75 75 28 307 307 247 237 255 250 276 218 186 180 154 142 122 91 26 243 212 110 146 110 8 353 299 311 141 22 89 205 164 181 209 212 218 229 234 238
317 319 324 332 332 358 126 24 355 333 217 270 223 237 219 202 194 201 202 167 122 122 155 153 227 135 126 149 131 183 210 231 226 6 57 335 345 144 227 226 226 227 228 234 242
313 316 322 337 312 342 162 356 343 111 56 272 223 211 184 154 202 175 185 165 64 153 151 175 293 112 49 269 147 205 226 289 74 58 311 23 286 322 207 206 221 231 226 228 237
307 310 315 324 316 314 295 345 358 171 102 217 175 184 168 170 142 169 180 156 143 143 111 229 159 162 182 226 141 231 86 89 72 90 29 358 68 269 344 254 250 239 234 230 236
300 304 305 310 305 282 314 343 139 45 254 221 149 153 121 137 113 148 155 160 126 108 42 208 227 190 210 260 151 165 67 49 56 61 9 278 119 291 230 213 247 237 238 236 244
296 297 297 293 273 299 323 114 56 150 308 177 178 154 127 152 133 137 130 111 140 109 259 340 278 259 157 85 37 82 71 0 348 12 224 259 77 240 238 235 210 207 210 219 224
301 296 288 280 271 267 249 59 178 243 261 317 87 89 170 138 158 123 113 152 115 105 110 167 317 181 190 161 169 106 139 150 234 258 278 223 243 255 207 268 249 225 216 212 235
310 308 297 267 234 203 169 93 208 214 303 340 7 108 155 198 136 113 160 182 190 178 138 144 271 272 208 145 135 196 195 172 102 7 7 298 293 308 294 228 198 207 206 246 233
325 322 98 238 179 169 85 221 233 227 321 8 168 140 162 189 140 145 172 193 197 192 153 200 324 223 19 93 65 163 148 95 36 166 267 315 291 244 300 265 232 219 232 253 208
330 336 332 155 151 160 155 228 257 273 304 354 316 60 126 174 166 185 201 249 186 138 116 137 111 295 3 182 180 126 117 57 109 106 154 180 274 218 249 238 221 232 229 227 216
354 43 129 130 75 71 156 199 228 289 317 291 274 256 182 163 142 187 207 220 189 143 156 191 145 204 225 205 187 143 166 131 126 215 62 137 273 238 244 259 242 241 241 238 216
353 47 172 358 125 296 278 281 276 329 339 335 295 204 8 177 170 205 198 208 157 149 162 178 212 15 347 2 38 175 113 102 102 100 187 135 261 324 310 297 273 268 265 237 232
3 58 106 214 92 122 82 341 312 311 253 242 273 268 319 279 224 187 246 236 194 186 182 134 130 157 184 203 164 106 146 139 114 118 169 224 285 342 342 327 309 301 272 239 231
21 49 45 311 4 70 129 342 335 351 341 316 296 257 29 330 336 211 200 258 127 154 122 136 202 173 232 171 161 159 156 160 179 165 151 222 195 313 301 303 317 323 295 256 245
26 20 5 322 320 341 113 105 166 8 317 303 247 335 40 297 282 307 343 183 194 218 128 2 187 157 182 252 248 121 90 116 103 133 26 89 50 308 345 26 17 25 33 50 271
31 13 348 344 350 81 157 322 104 32 262 252 309 337 312 265 272 257 271 274 252 152 140 130 137 114 210 31 76 22 316 114 109 94 135 109 208 292 18 32 33 37 30 43 31
Height
1508 1505 1503 1500 1498 1495 1493 1491 1488 1487 1486 1484 1482 1481 1480 1480 1481 1482 1483 1486 1486 1486 1485 1485 1484 1485 1485 1486 1485 1486 1501 1509 1501 1501 1501 1501 1505 1508 1508 1509 1512 1513 1514 1518 1520
1507 1505 1502 1499 1497 1494 1492 1489 1487 1485 1484 1483 1481 1480 1480 1478 1479 1480 1484 1484 1486 1486 1486 1484 1484 1485 1486 1486 1486 1486 1502 1499 1494 1493 1496 1501 1503 1507 1510 1511 1513 1512 1517 1520 1522
1506 1504 1502 1499 1496 1493 1491 1488 1485 1484 1482 1481 1480 1479 1478 1478 1479 1479 1481 1483 1484 1486 1486 1484 1483 1484 1484 1484 1487 1490 1499 1492 1493 1492 1493 1499 1504 1505 1509 1514 1512 1512 1517 1520 1523
1505 1502 1500 1498 1495 1492 1489 1486 1484 1482 1481 1480 1479 1478 1478 1478 1485 1478 1479 1482 1484 1486 1485 1484 1484 1484 1487 1489 1490 1495 1494 1493 1493 1493 1496 1498 1502 1505 1506 1507 1511 1514 1516 1520 1523
1505 1502 1499 1497 1493 1490 1488 1485 1482 1480 1479 1478 1477 1477 1477 1478 1476 1477 1478 1481 1483 1485 1485 1485 1485 1485 1491 1490 1493 1495 1496 1497 1496 1495 1495 1496 1498 1501 1507 1507 1512 1517 1519 1521 1523
1504 1500 1497 1494 1491 1488 1485 1482 1480 1478 1477 1476 1476 1476 1477 1478 1475 1475 1477 1480 1483 1484 1485 1485 1485 1486 1490 1493 1495 1497 1497 1498 1499 1498 1499 1499 1503 1502 1508 1508 1512 1516 1519 1521 1524
1502 1499 1495 1492 1489 1485 1482 1479 1477 1476 1475 1474 1474 1474 1475 1474 1474 1476 1478 1480 1483 1484 1485 1486 1486 1488 1492 1496 1497 1498 1500 1499 1499 1499 1501 1501 1507 1506 1506 1508 1512 1515 1518 1520 1522
1499 1497 1493 1490 1486 1482 1480 1476 1475 1474 1474 1473 1473 1474 1471 1472 1474 1476 1478 1479 1482 1484 1486 1486 1487 1488 1492 1497 1499 1501 1504 1512 1499 1497 1499 1501 1515 1506 1508 1510 1511 1514 1517 1519 1521
1497 1495 1491 1488 1484 1480 1477 1474 1473 1473 1473 1473 1473 1473 1469 1471 1473 1476 1478 1479 1481 1484 1485 1486 1488 1491 1495 1501 1510 1508 1515 1512 1504 1498 1498 1502 1511 1506 1508 1511 1513 1513 1515 1517 1520
1495 1492 1489 1486 1482 1478 1475 1473 1472 1473 1473 1472 1473 1475 1469 1470 1472 1474 1477 1478 1480 1483 1486 1487 1489 1496 1501 1508 1527 1516 1514 1510 1508 1499 1499 1503 1507 1506 1507 1509 1510 1513 1515 1516 1517
1493 1489 1486 1484 1479 1477 1475 1473 1476 1475 1471 1468 1469 1467 1466 1469 1470 1473 1476 1478 1480 1482 1489 1489 1497 1507 1501 1500 1499 1501 1506 1504 1497 1494 1498 1503 1504 1506 1506 1508 1510 1512 1513 1514 1515
1490 1486 1483 1482 1477 1476 1474 1474 1476 1477 1470 1465 1465 1465 1466 1467 1469 1471 1475 1478 1480 1488 1486 1494 1502 1493 1496 1497 1502 1506 1508 1505 1497 1494 1497 1505 1503 1501 1504 1504 1504 1507 1509 1510 1513
1487 1483 1481 1479 1476 1476 1475 1475 1474 1472 1473 1463 1462 1462 1464 1467 1468 1469 1473 1476 1480 1488 1490 1499 1492 1489 1493 1501 1504 1509 1511 1507 1505 1498 1500 1502 1505 1506 1503 1503 1503 1503 1504 1506 1508
1484 1482 1479 1477 1478 1474 1475 1474 1472 1471 1482 1465 1460 1459 1462 1464 1467 1468 1472 1476 1479 1489 1489 1491 1487 1490 1494 1497 1502 1512 1495 1498 1502 1510 1526 1510 1536 1509 1505 1502 1499 1498 1499 1501 1504
1481 1479 1478 1477 1475 1474 1474 1473 1472 1472 1503 1459 1458 1457 1459 1463 1462 1466 1470 1473 1480 1483 1487 1495 1490 1493 1497 1494 1492 1501 1494 1498 1502 1517 1519 1521 1533 1514 1502 1500 1495 1493 1495 1497 1501
1478 1476 1475 1475 1472 1472 1471 1471 1472 1489 1499 1460 1454 1456 1460 1461 1462 1465 1468 1472 1476 1480 1484 1487 1485 1486 1487 1484 1487 1492 1496 1506 1515 1525 1545 1527 1532 1520 1506 1496 1489 1486 1487 1491 1492
1474 1473 1471 1471 1471 1470 1470 1470 1489 1499 1461 1461 1458 1456 1459 1465 1465 1466 1470 1476 1486 1501 1500 1491 1486 1481 1481 1490 1489 1494 1509 1544 1545 1551 1547 1529 1534 1512 1491 1486 1484 1482 1483 1484 1485
1470 1468 1467 1468 1468 1469 1470 1474 1491 1473 1469 1456 1456 1459 1466 1462 1466 1467 1474 1485 1479 1484 1507 1511 1513 1484 1477 1483 1494 1501 1509 1538 1545 1554 1543 1529 1526 1501 1481 1480 1479 1481 1482 1483 1483
1465 1464 1463 1463 1464 1467 1470 1489 1482 1473 1463 1462 1457 1465 1466 1462 1465 1468 1475 1483 1478 1479 1498 1510 1503 1475 1475 1475 1479 1498 1511 1507 1541 1549 1546 1537 1513 1489 1478 1478 1480 1479 1479 1479 1479
1461 1460 1459 1460 1462 1465 1471 1482 1474 1465 1462 1461 1463 1459 1473 1468 1467 1473 1480 1468 1473 1471 1471 1486 1501 1477 1474 1475 1479 1484 1489 1517 1535 1543 1542 1540 1531 1518 1485 1477 1477 1477 1476 1477 1478
1460 1458 1458 1458 1462 1465 1480 1479 1469 1463 1462 1462 1461 1460 1462 1466 1469 1475 1473 1463 1461 1469 1472 1483 1492 1490 1479 1482 1488 1491 1500 1514 1524 1536 1552 1553 1532 1489 1481 1475 1474 1473 1473 1475 1477
1459 1460 1460 1461 1465 1471 1475 1469 1464 1463 1461 1459 1458 1458 1458 1461 1467 1471 1470 1462 1455 1462 1478 1478 1495 1503 1488 1475 1474 1477 1490 1501 1523 1530 1547 1544 1525 1475 1473 1471 1471 1469 1473 1474 1477
1462 1461 1462 1462 1472 1472 1468 1465 1463 1463 1462 1461 1459 1456 1454 1457 1464 1463 1461 1452 1454 1460 1469 1474 1495 1512 1497 1487 1476 1479 1486 1500 1509 1521 1540 1539 1522 1475 1472 1470 1469 1472 1472 1475 1476
1464 1465 1464 1464 1465 1466 1467 1466 1465 1461 1461 1460 1458 1455 1455 1456 1454 1459 1456 1450 1450 1451 1456 1461 1488 1492 1510 1492 1482 1481 1482 1492 1496 1520 1530 1525 1502 1487 1482 1478 1472 1472 1473 1474 1476
1466 1469 1471 1470 1467 1467 1467 1468 1467 1466 1461 1459 1457 1458 1458 1461 1456 1455 1453 1450 1451 1453 1456 1460 1480 1481 1480 1474 1476 1476 1478 1489 1491 1497 1499 1497 1503 1494 1487 1481 1475 1473 1472 1474 1476
1470 1471 1470 1469 1468 1468 1469 1470 1468 1468 1466 1463 1462 1459 1459 1463 1459 1460 1451 1450 1450 1455 1457 1461 1483 1476 1480 1475 1476 1478 1484 1485 1485 1492 1493 1498 1500 1489 1483 1479 1475 1473 1473 1474 1475
1472 1472 1473 1471 1469 1470 1471 1469 1468 1467 1463 1461 1461 1464 1460 1454 1450 1446 1448 1446 1446 1449 1459 1464 1477 1487 1492 1482 1480 1495 1483 1484 1487 1486 1488 1503 1495 1488 1485 1482 1477 1476 1477 1478 1479